• In Deutschland
  • Länderverzeichnis
  • Für 7 Tage
  • Wassertemperatur
  • Satellitenkarten
  • Wetterkarte
  • Widgets
  • user-avatar
    Anmelden

    Stündliche Wetter Kchulna

    Heute, 21 Februar, Mittwoch

    Zeit Temperatur Niederschläge Wind Luftdruck Luftfeuchtigkeit
    00:00 +24°C° 0 mm 1 m/S 757 mmHg 45%
    01:00 +24°C° 0 mm 1 m/S 757 mmHg 46%
    02:00 +24°C° 0 mm 1 m/S 757 mmHg 47%
    03:00 +23°C° 0 mm 1 m/S 757 mmHg 48%
    04:00 +23°C° 0 mm 1 m/S 757 mmHg 49%
    05:00 +23°C° 0 mm 1 m/S 757 mmHg 50%
    06:00 +23°C° 0 mm 1 m/S 757 mmHg 51%
    07:00 +24°C° 0 mm 1 m/S 758 mmHg 46%
    08:00 +26°C° 0 mm 1 m/S 758 mmHg 42%
    09:00 +28°C° 0 mm 1 m/S 758 mmHg 38%
    10:00 +30°C° 0 mm 1 m/S 758 mmHg 34%
    11:00 +32°C° 0 mm 1 m/S 758 mmHg 30%
    12:00 +33°C° 0 mm 1 m/S 758 mmHg 27%
    13:00 +34°C° 0 mm 1 m/S 757 mmHg 26%
    14:00 +34°C° 0 mm 1 m/S 756 mmHg 25%
    15:00 +34°C° 0 mm 1 m/S 755 mmHg 24%
    16:00 +33°C° 0 mm 1 m/S 755 mmHg 27%
    17:00 +32°C° 0 mm 1 m/S 755 mmHg 30%
    18:00 +30°C° 0 mm 1 m/S 755 mmHg 32%
    19:00 +29°C° 0 mm 2 m/S 755 mmHg 37%
    20:00 +28°C° 0 mm 2 m/S 756 mmHg 42%
    21:00 +27°C° 0 mm 2 m/S 756 mmHg 47%
    22:00 +26°C° 0 mm 2 m/S 756 mmHg 51%
    23:00 +25°C° 0 mm 2 m/S 756 mmHg 55%

    Morgen, 22 Februar, Donnerstag

    Zeit Temperatur Niederschläge Wind Luftdruck Luftfeuchtigkeit
    00:00 +25°C° 0 mm 2 m/S 756 mmHg 59%
    01:00 +24°C° 0 mm 2 m/S 756 mmHg 60%
    02:00 +24°C° 0 mm 2 m/S 756 mmHg 62%
    03:00 +23°C° 0 mm 2 m/S 756 mmHg 63%
    04:00 +23°C° 0 mm 2 m/S 756 mmHg 65%
    05:00 +23°C° 0 mm 2 m/S 756 mmHg 66%
    06:00 +21°C° 0 mm 2 m/S 756 mmHg 68%
    07:00 +24°C° 0 mm 2 m/S 756 mmHg 59%
    08:00 +26°C° 0 mm 2 m/S 757 mmHg 51%
    09:00 +28°C° 0 mm 2 m/S 757 mmHg 43%
    10:00 +30°C° 0 mm 2 m/S 757 mmHg 36%
    11:00 +32°C° 0 mm 2 m/S 757 mmHg 30%
    12:00 +35°C° 0 mm 2 m/S 757 mmHg 24%
    13:00 +36°C° 0 mm 2 m/S 756 mmHg 22%
    14:00 +36°C° 0 mm 2 m/S 755 mmHg 21%
    15:00 +37°C° 0 mm 3 m/S 755 mmHg 19%
    16:00 +35°C° 0 mm 2 m/S 755 mmHg 21%
    17:00 +34°C° 0 mm 2 m/S 755 mmHg 24%
    18:00 +31°C° 0 mm 2 m/S 754 mmHg 26%
    19:00 +30°C° 0 mm 2 m/S 755 mmHg 30%
    20:00 +29°C° 0 mm 2 m/S 756 mmHg 33%
    21:00 +27°C° 0 mm 3 m/S 756 mmHg 37%
    22:00 +26°C° 0 mm 2 m/S 756 mmHg 41%
    23:00 +26°C° 0 mm 2 m/S 756 mmHg 44%

    übermorgen, 23 Februar, Freitag

    Zeit Temperatur Niederschläge Wind Luftdruck Luftfeuchtigkeit
    00:00 +25°C° 0 mm 2 m/S 756 mmHg 48%
    01:00 +24°C° 0 mm 2 m/S 756 mmHg 51%
    02:00 +24°C° 0 mm 2 m/S 756 mmHg 54%
    03:00 +23°C° 0 mm 2 m/S 756 mmHg 56%
    04:00 +23°C° 0 mm 2 m/S 756 mmHg 58%
    05:00 +23°C° 0 mm 2 m/S 756 mmHg 59%
    06:00 +21°C° 0 mm 2 m/S 756 mmHg 60%
    07:00 +25°C° 0 mm 2 m/S 757 mmHg 52%
    08:00 +27°C° 0 mm 2 m/S 758 mmHg 43%
    09:00 +29°C° 0 mm 2 m/S 759 mmHg 35%
    10:00 +31°C° 0 mm 2 m/S 758 mmHg 30%
    11:00 +34°C° 0 mm 2 m/S 758 mmHg 24%
    12:00 +36°C° 0 mm 3 m/S 758 mmHg 19%
    13:00 +37°C° 0 mm 3 m/S 757 mmHg 18%
    14:00 +37°C° 0 mm 4 m/S 756 mmHg 17%
    15:00 +38°C° 0 mm 4 m/S 755 mmHg 16%
    16:00 +36°C° 0 mm 3 m/S 755 mmHg 18%
    17:00 +34°C° 0 mm 3 m/S 755 mmHg 21%
    18:00 +32°C° 0 mm 2 m/S 755 mmHg 23%
    19:00 +30°C° 0 mm 2 m/S 756 mmHg 26%
    20:00 +29°C° 0 mm 2 m/S 756 mmHg 30%
    21:00 +28°C° 0 mm 2 m/S 757 mmHg 33%
    22:00 +27°C° 0 mm 2 m/S 757 mmHg 38%
    23:00 +26°C° 0 mm 2 m/S 757 mmHg 42%

    24 Februar, Samstag

    Zeit Temperatur Niederschläge Wind Luftdruck Luftfeuchtigkeit
    00:00 +25°C° 0 mm 2 m/S 757 mmHg 47%
    01:00 +25°C° 0 mm 2 m/S 757 mmHg 48%
    02:00 +25°C° 0 mm 2 m/S 757 mmHg 49%
    03:00 +24°C° 0 mm 2 m/S 757 mmHg 49%
    04:00 +24°C° 0 mm 2 m/S 757 mmHg 51%
    05:00 +24°C° 0 mm 2 m/S 758 mmHg 53%
    06:00 +23°C° 0 mm 2 m/S 758 mmHg 54%
    07:00 +25°C° 0 mm 2 m/S 759 mmHg 49%
    08:00 +27°C° 0 mm 2 m/S 760 mmHg 44%
    09:00 +30°C° 0 mm 2 m/S 760 mmHg 39%
    10:00 +32°C° 0 mm 2 m/S 760 mmHg 33%
    11:00 +35°C° 0 mm 2 m/S 760 mmHg 26%
    12:00 +37°C° 0 mm 3 m/S 759 mmHg 20%
    13:00 +38°C° 0 mm 3 m/S 759 mmHg 19%
    14:00 +38°C° 0 mm 3 m/S 758 mmHg 17%
    15:00 +40°C° 0 mm 4 m/S 757 mmHg 15%
    16:00 +37°C° 0 mm 3 m/S 757 mmHg 18%
    17:00 +36°C° 0 mm 2 m/S 757 mmHg 20%
    18:00 +34°C° 0 mm 2 m/S 757 mmHg 22%
    19:00 +32°C° 0 mm 2 m/S 758 mmHg 24%
    20:00 +30°C° 0 mm 2 m/S 758 mmHg 26%
    21:00 +29°C° 0 mm 2 m/S 759 mmHg 28%
    22:00 +28°C° 0 mm 2 m/S 759 mmHg 30%
    23:00 +27°C° 0 mm 2 m/S 759 mmHg 33%

    25 Februar, Sonntag

    Zeit Temperatur Niederschläge Wind Luftdruck Luftfeuchtigkeit
    00:00 +26°C° 0 mm 1 m/S 759 mmHg 35%
    01:00 +26°C° 0 mm 2 m/S 758 mmHg 36%
    02:00 +26°C° 0 mm 2 m/S 758 mmHg 37%
    03:00 +25°C° 0 mm 2 m/S 758 mmHg 37%
    04:00 +25°C° 0 mm 2 m/S 758 mmHg 39%
    05:00 +24°C° 0 mm 1 m/S 758 mmHg 40%
    06:00 +24°C° 0 mm 1 m/S 758 mmHg 41%
    07:00 +26°C° 0 mm 1 m/S 759 mmHg 37%
    08:00 +28°C° 0 mm 1 m/S 760 mmHg 33%
    09:00 +31°C° 0 mm 1 m/S 760 mmHg 29%
    10:00 +34°C° 0 mm 2 m/S 760 mmHg 26%
    11:00 +36°C° 0 mm 2 m/S 760 mmHg 22%
    12:00 +38°C° 0 mm 3 m/S 759 mmHg 18%
    13:00 +39°C° 0 mm 3 m/S 758 mmHg 17%
    14:00 +40°C° 0 mm 4 m/S 757 mmHg 16%
    15:00 +41°C° 0 mm 4 m/S 757 mmHg 15%
    16:00 +38°C° 0 mm 3 m/S 756 mmHg 17%
    17:00 +36°C° 0 mm 3 m/S 756 mmHg 19%
    18:00 +35°C° 0 mm 2 m/S 756 mmHg 22%
    19:00 +32°C° 0 mm 2 m/S 757 mmHg 23%
    20:00 +31°C° 0 mm 1 m/S 757 mmHg 25%
    21:00 +28°C° 0 mm 0 m/S 757 mmHg 27%
    22:00 +29°C° 0 mm 1 m/S 757 mmHg 29%
    23:00 +28°C° 0 mm 1 m/S 757 mmHg 31%

    26 Februar, Montag

    Zeit Temperatur Niederschläge Wind Luftdruck Luftfeuchtigkeit
    00:00 +27°C° 0 mm 1 m/S 757 mmHg 33%
    01:00 +27°C° 0 mm 2 m/S 757 mmHg 34%
    02:00 +26°C° 0 mm 2 m/S 757 mmHg 36%
    03:00 +26°C° 0 mm 2 m/S 757 mmHg 37%
    04:00 +26°C° 0 mm 2 m/S 757 mmHg 39%
    05:00 +25°C° 0 mm 1 m/S 757 mmHg 40%
    06:00 +25°C° 0 mm 1 m/S 757 mmHg 41%
    07:00 +27°C° 0 mm 1 m/S 758 mmHg 38%
    08:00 +29°C° 0 mm 1 m/S 758 mmHg 35%
    09:00 +31°C° 0 mm 1 m/S 759 mmHg 31%
    10:00 +34°C° 0 mm 2 m/S 758 mmHg 27%
    11:00 +36°C° 0 mm 2 m/S 758 mmHg 23%
    12:00 +38°C° 0 mm 3 m/S 757 mmHg 19%
    13:00 +39°C° 0 mm 3 m/S 756 mmHg 17%
    14:00 +40°C° 0 mm 4 m/S 756 mmHg 15%
    15:00 +41°C° 0 mm 5 m/S 755 mmHg 14%
    16:00 +38°C° 0 mm 4 m/S 755 mmHg 16%
    17:00 +36°C° 0 mm 3 m/S 755 mmHg 19%
    18:00 +35°C° 0 mm 3 m/S 754 mmHg 21%
    19:00 +32°C° 0 mm 2 m/S 755 mmHg 22%
    20:00 +31°C° 0 mm 1 m/S 755 mmHg 24%
    21:00 +30°C° 0 mm 1 m/S 756 mmHg 25%
    22:00 +29°C° 0 mm 1 m/S 756 mmHg 26%
    23:00 +29°C° 0 mm 1 m/S 756 mmHg 27%
    Mehr zeigen